Theta_e
303 305 313 319 320 317 318 318 318 319 319 319 316 316 318 317 320 324 319 317 320 320 331 334 339 341 342 341 341 341 338 337 333 332 331 329 329 332 336 327 326 329 333 334 335 330 328 329 333
303 312 316 318 315 317 317 317 317 317 317 313 313 313 316 317 317 317 316 315 312 315 328 335 336 341 341 341 341 340 341 337 335 333 332 332 332 335 337 336 334 336 336 336 334 333 324 321 323
306 312 314 315 314 313 313 313 315 313 310 310 310 310 312 315 315 311 306 306 307 309 320 331 334 337 340 341 341 340 340 337 337 334 334 333 334 337 337 338 337 336 334 335 335 333 326 324 322
306 309 308 310 313 314 312 311 312 311 309 308 307 309 310 308 307 305 305 305 305 307 315 325 332 335 338 339 340 340 340 338 337 335 335 334 334 335 338 338 337 337 333 336 335 333 326 324 320
306 308 310 310 312 311 310 310 308 308 308 308 306 307 308 306 304 303 304 306 305 305 306 315 325 331 336 337 338 338 340 339 337 337 334 335 334 335 336 338 338 335 333 335 335 333 329 322 319
306 307 310 312 312 309 308 307 306 306 306 306 305 305 306 304 303 302 302 303 304 304 304 305 311 318 328 336 337 337 337 338 337 336 334 334 334 335 335 337 338 336 334 335 335 334 331 322 320
308 309 312 311 310 309 307 305 305 306 306 307 304 305 306 306 302 303 302 303 303 304 304 304 304 307 311 324 333 336 337 338 337 336 334 334 334 335 334 335 337 338 336 335 335 333 331 320 320
306 308 310 310 310 309 305 305 304 304 305 304 303 306 306 302 301 301 302 302 303 303 303 302 302 303 306 308 318 326 334 336 337 337 336 334 334 334 334 334 335 337 337 336 335 333 329 320 318
303 309 311 310 308 308 304 305 305 304 303 304 304 303 303 300 300 300 301 302 302 302 302 302 302 302 302 304 305 313 320 329 334 336 337 336 334 333 333 333 334 335 337 336 334 333 327 319 321
307 310 310 306 306 305 305 304 304 303 304 304 304 304 303 300 300 300 300 300 301 301 301 301 301 302 302 302 303 304 307 308 323 327 332 336 335 335 334 333 333 334 336 336 334 332 325 319 323
306 309 306 305 304 303 304 303 303 303 304 303 303 301 299 298 299 299 299 299 299 299 300 300 301 301 302 301 302 304 304 304 305 314 319 324 332 335 335 335 334 334 335 335 333 330 322 319 326
306 305 304 304 302 302 302 302 303 302 303 300 299 298 297 298 298 298 298 297 297 298 298 300 300 300 301 301 301 302 305 305 302 303 307 311 322 331 335 335 335 335 335 334 333 328 322 322 324
305 305 302 302 301 301 301 302 302 302 301 299 297 296 297 296 296 296 295 295 296 296 296 298 299 299 300 301 301 301 302 304 307 306 304 304 308 316 325 333 330 333 332 332 329 325 326 324 322
303 303 303 302 302 302 301 302 301 301 298 297 297 297 296 295 295 294 294 294 294 294 294 296 298 299 299 300 301 301 301 302 303 307 310 310 303 305 312 326 326 322 325 324 325 322 325 325 323
302 304 305 303 302 302 300 301 301 301 297 297 297 296 295 294 294 293 293 292 292 293 293 295 296 298 299 300 300 300 301 301 302 304 309 314 313 304 303 310 325 327 330 328 325 326 327 325 326
304 303 309 307 303 301 300 303 303 299 297 298 297 296 295 294 293 292 291 291 291 291 292 293 295 297 299 302 302 302 303 301 301 302 304 307 311 306 302 303 314 325 326 329 330 327 325 324 320
306 308 308 307 302 301 300 302 301 299 297 297 297 295 294 293 292 291 290 289 290 290 291 291 294 295 298 300 300 302 304 305 305 301 301 305 313 311 306 301 303 323 326 325 328 327 326 325 323
307 307 307 307 306 304 302 303 302 301 299 297 296 295 293 292 291 290 289 288 288 289 290 290 292 294 297 298 299 301 305 305 302 304 301 301 308 314 303 301 301 307 316 321 326 330 328 326 325
304 305 306 307 303 301 302 302 301 300 299 297 296 294 292 290 289 288 288 287 287 288 289 290 293 294 295 297 299 301 306 305 303 301 301 301 301 301 301 303 301 307 317 320 324 328 328 326 326
304 305 307 305 302 301 301 301 301 301 299 298 295 293 291 289 288 288 287 287 286 287 288 288 291 294 295 296 298 299 303 307 308 306 301 301 302 302 301 303 301 302 317 320 326 325 327 326 325
305 306 306 303 301 302 300 303 302 298 298 295 292 292 290 288 287 287 287 286 286 286 287 288 291 292 294 296 298 299 301 302 304 305 305 308 309 302 301 301 305 306 310 319 323 323 326 326 324
305 302 301 301 301 306 299 306 303 299 297 295 294 291 289 287 286 286 286 285 285 285 287 289 290 291 293 296 297 298 300 303 307 308 309 309 306 301 301 301 302 303 314 317 323 322 323 323 325
305 301 300 299 299 300 301 301 304 298 297 296 294 290 288 286 286 285 285 284 284 284 286 288 290 291 292 294 297 298 299 301 303 304 303 304 302 301 301 300 302 303 308 320 320 322 323 322 323
299 301 301 299 300 304 303 301 305 301 298 295 292 289 286 285 285 285 285 284 284 284 286 287 289 291 292 294 297 298 298 299 302 302 302 301 302 302 301 302 303 306 308 320 322 321 323 324 324
301 306 314 314 313 314 300 300 303 296 293 291 289 285 284 285 285 284 284 284 284 284 284 285 287 288 290 294 297 297 297 299 300 301 301 301 305 304 302 308 310 312 310 315 320 321 323 323 324
299 303 309 311 313 309 300 301 304 293 290 289 287 284 286 285 284 284 283 283 283 283 283 283 285 287 289 293 296 296 297 298 300 301 304 305 304 304 307 311 314 314 316 315 320 321 322 322 323
301 305 298 301 298 300 304 303 295 292 292 292 288 286 286 284 284 283 282 282 282 281 282 283 284 286 289 293 295 296 296 297 299 302 303 303 304 306 310 313 314 315 315 317 319 320 320 320 319
298 298 303 301 308 309 309 307 306 296 293 291 287 286 285 284 283 282 282 281 280 280 281 282 283 285 288 290 292 294 295 297 299 300 302 303 304 306 308 310 312 314 315 315 316 317 317 314 312
298 300 299 300 300 307 308 310 296 292 290 288 286 285 283 283 282 281 280 280 281 281 282 282 283 285 286 288 289 291 293 295 297 297 299 300 301 302 303 306 307 309 310 310 309 312 312 307 307
296 301 302 306 304 301 300 302 292 289 287 285 285 284 283 282 281 280 279 279 280 280 281 281 282 284 285 286 287 289 291 291 292 293 295 295 298 300 302 303 303 305 304 302 304 304 302 304 302
Wind_Speed
4 7 4 4 5 5 10 2 3 4 2 3 2 5 7 9 6 4 5 11 14 17 15 13 8 8 9 11 14 16 18 18 18 17 16 17 18 20 21 23 24 24 23 21 19 17 15 16 16
8 9 2 3 5 9 7 3 4 2 6 7 7 8 10 9 1 5 5 13 15 16 15 13 10 12 12 13 15 15 17 20 20 19 19 19 19 20 22 24 23 23 23 21 19 15 12 14 15
11 8 4 4 5 8 6 7 5 2 3 4 4 4 6 4 4 4 12 16 15 15 16 13 12 14 15 16 15 16 16 19 21 22 22 21 21 20 22 24 23 23 23 21 19 14 12 13 14
3 4 4 6 11 8 3 2 3 7 6 1 3 9 2 1 2 8 13 15 16 15 14 14 13 13 17 18 18 17 17 17 20 23 24 24 24 22 22 24 24 23 23 22 18 14 11 12 13
3 4 6 6 8 5 4 4 6 9 8 7 4 6 10 4 3 10 14 14 16 16 15 14 12 15 12 17 20 19 18 18 20 21 24 25 26 25 25 25 25 24 24 22 17 16 11 10 13
5 4 6 8 2 3 4 3 9 10 9 9 9 12 12 6 7 12 16 16 16 16 16 16 14 13 13 12 13 14 20 21 21 22 23 25 26 27 27 26 26 25 25 23 19 16 12 11 13
8 5 6 7 7 5 1 2 5 7 9 6 5 7 6 8 14 14 19 18 16 15 15 15 16 15 13 13 13 15 16 22 24 23 26 26 27 27 27 26 27 26 27 24 21 17 13 11 14
4 3 4 3 6 4 3 3 3 7 10 6 5 5 7 18 20 21 23 19 18 17 18 21 19 19 16 13 14 13 15 19 21 24 24 28 28 28 27 28 28 28 28 26 23 20 15 13 14
2 5 6 5 4 2 2 4 6 8 14 17 16 17 16 15 20 21 22 21 19 18 22 24 25 21 19 17 14 15 12 16 17 20 25 25 26 27 27 27 28 28 29 27 23 20 17 15 16
4 4 4 4 4 6 9 11 14 11 17 21 23 19 13 18 19 20 18 20 20 22 23 22 25 25 22 19 17 14 14 13 14 13 14 21 26 27 27 28 28 28 30 29 25 21 18 17 20
1 3 4 1 4 6 10 15 18 19 18 20 13 14 18 21 21 20 20 20 21 24 23 22 24 26 25 24 19 17 13 11 10 12 10 9 19 30 24 24 26 27 30 31 30 24 21 20 20
4 4 4 2 3 6 12 17 16 19 21 8 9 12 16 21 21 22 23 23 24 25 26 26 25 25 24 25 24 21 19 14 10 10 10 8 7 19 20 26 24 25 27 28 29 24 22 22 24
6 3 4 8 9 15 14 17 17 20 18 9 10 12 14 18 22 22 22 24 23 24 25 25 25 27 26 23 25 26 23 21 22 15 10 11 9 8 10 11 12 20 25 23 10 16 16 18 24
3 10 11 6 7 10 10 17 17 14 2 7 10 12 15 17 20 23 22 24 24 24 24 25 25 25 25 25 23 25 26 23 21 25 22 12 13 12 8 9 11 9 17 15 16 14 26 21 22
5 7 7 5 1 5 10 17 12 6 3 8 12 14 15 15 18 21 22 24 24 25 25 24 24 22 22 24 25 22 25 25 23 24 23 23 20 14 17 12 13 14 19 23 26 23 28 24 21
4 3 8 5 2 1 4 12 9 3 6 13 15 14 15 16 18 20 21 24 23 24 24 24 23 22 19 19 21 20 18 24 24 23 22 24 22 17 16 19 17 16 18 23 25 29 29 22 23
6 8 12 8 6 3 5 15 3 5 12 16 14 13 15 17 18 20 22 22 23 22 23 23 22 22 18 22 22 19 17 18 23 20 23 25 30 24 22 20 22 20 19 22 27 33 32 26 25
9 8 7 14 3 11 18 25 21 22 12 15 14 13 15 18 20 21 22 22 22 21 21 21 23 21 17 22 20 17 16 17 21 18 21 18 25 30 24 23 23 21 22 23 25 30 34 29 30
8 10 16 17 7 10 12 21 20 18 17 14 13 12 16 20 20 19 20 21 21 20 19 19 21 18 14 20 18 14 10 11 16 22 18 18 18 21 26 25 22 23 23 23 26 31 32 32 31
11 15 17 6 5 16 16 21 15 14 13 13 8 11 16 19 20 19 20 20 20 20 17 17 16 16 14 21 21 15 18 15 11 13 19 17 16 20 22 20 24 23 26 25 25 28 30 33 40
12 12 12 13 19 11 11 12 5 1 5 7 9 9 15 17 20 20 20 20 20 19 17 16 15 12 12 18 22 18 17 11 11 11 10 9 19 21 21 23 22 24 24 26 27 30 31 31 32
6 3 9 15 11 5 5 6 6 6 7 8 8 12 17 16 16 17 19 20 20 19 17 15 14 11 11 15 17 16 12 10 7 6 12 12 20 19 22 24 26 26 19 25 29 31 31 31 32
7 13 14 9 3 9 6 3 3 4 8 8 4 14 17 16 16 17 18 19 20 18 17 15 13 11 9 10 14 13 12 12 13 13 14 14 18 19 22 23 25 25 28 21 27 30 29 33 33
11 10 4 1 2 3 6 2 6 3 1 1 7 15 17 16 17 16 16 19 19 17 16 15 13 10 9 6 10 11 11 13 13 13 14 17 17 18 20 22 24 25 28 27 26 30 31 33 33
7 8 4 3 2 3 6 6 7 4 2 3 9 15 16 15 16 17 17 18 19 19 17 16 13 10 7 4 7 9 9 10 10 11 12 15 15 17 16 17 19 22 24 26 30 31 35 33 42
3 4 2 7 6 11 8 6 0 3 2 6 7 13 14 15 15 15 16 17 17 18 17 16 14 11 6 1 4 7 9 9 9 8 11 13 14 14 12 15 18 18 20 23 29 28 32 31 33
2 2 2 3 2 4 4 5 5 3 4 10 10 13 12 14 14 14 15 15 17 18 17 16 14 11 8 3 3 6 7 9 9 11 12 12 12 12 13 13 15 16 21 22 25 22 27 27 33
3 6 2 3 5 7 5 6 7 2 9 13 10 13 14 14 14 13 14 16 17 16 15 14 13 11 8 3 3 3 6 8 9 12 13 12 12 12 11 12 12 13 19 21 23 21 21 22 21
3 3 2 1 2 4 7 5 3 2 7 12 11 13 14 14 14 14 15 16 15 14 13 13 13 11 7 4 1 1 4 6 9 11 11 12 12 11 10 10 12 13 14 14 18 20 19 23 21
1 3 4 3 4 4 3 8 6 3 5 10 13 13 12 12 12 12 13 14 14 14 13 12 12 11 8 7 4 3 3 5 8 10 11 13 14 14 15 15 16 18 20 20 21 23 27 26 26
Wind_Direction
101 137 142 189 235 237 267 263 21 238 219 70 317 267 322 320 306 348 3 335 341 338 322 317 297 242 252 241 246 250 240 228 221 216 211 206 201 197 195 190 188 188 192 196 199 203 201 198 201
131 139 152 226 247 239 268 236 219 342 9 308 280 262 252 270 46 327 340 320 348 349 332 320 296 260 252 256 238 245 248 231 224 217 214 210 208 204 202 198 196 196 194 196 201 205 216 208 208
145 142 226 230 243 250 298 30 15 81 343 337 298 309 311 8 47 1 345 342 341 345 336 316 305 275 253 253 242 241 250 240 226 221 217 215 214 211 208 206 206 201 202 204 203 218 222 210 209
135 208 244 246 244 256 287 341 343 294 284 261 335 278 190 343 27 352 333 340 343 334 326 314 299 289 269 253 251 235 237 238 234 228 222 220 219 218 214 213 212 212 208 204 211 224 210 212 216
176 236 239 242 262 267 296 297 293 283 288 267 306 270 265 135 55 335 321 318 333 334 318 306 295 280 287 269 266 245 235 226 231 231 228 224 223 222 221 220 215 214 212 212 218 216 223 217 219
203 272 235 255 318 184 247 291 288 274 284 300 292 305 277 144 359 330 342 333 328 327 325 307 298 296 286 280 260 265 251 233 225 224 225 228 228 225 226 226 222 216 214 215 217 219 220 227 219
264 236 285 294 288 281 172 328 275 315 294 306 311 273 267 218 339 316 330 328 323 318 323 310 295 291 302 283 269 249 247 242 236 224 223 224 227 230 230 230 228 223 217 217 216 220 225 231 220
255 266 250 230 323 308 95 301 298 294 301 312 299 262 299 323 315 309 316 316 315 316 313 308 297 289 287 289 280 271 250 242 233 232 228 227 227 225 227 232 235 230 224 220 218 220 228 231 223
244 240 260 266 273 52 140 295 300 278 274 280 275 273 295 323 323 321 315 314 313 311 304 299 299 293 285 285 282 276 272 249 238 228 228 231 231 231 229 229 233 232 227 222 223 224 227 227 222
247 262 358 29 337 289 300 286 298 289 282 281 281 276 288 316 320 320 323 319 316 314 307 300 295 292 287 281 275 275 278 287 256 234 227 230 231 229 231 231 233 233 225 218 220 222 224 220 217
216 292 40 309 286 293 292 289 283 276 274 281 296 288 301 311 314 313 313 311 310 312 311 309 294 289 286 280 274 266 270 278 281 263 240 233 237 233 231 235 234 232 232 225 217 210 218 217 208
267 255 269 321 285 285 287 292 279 271 275 301 297 297 305 309 310 310 309 308 306 304 301 302 303 290 283 276 271 267 256 261 273 272 263 248 241 235 235 237 242 234 234 235 209 203 207 212 205
250 300 285 293 279 285 289 277 273 278 274 257 282 291 295 301 304 306 304 305 303 303 299 294 298 296 286 275 264 262 259 254 252 264 272 260 247 238 240 234 242 232 245 218 193 182 210 214 207
329 295 294 295 283 283 284 284 281 267 198 254 265 283 294 299 304 307 308 303 301 300 301 296 292 293 290 280 263 254 256 254 251 254 257 260 270 257 238 215 219 196 230 221 237 250 246 224 211
297 296 261 206 281 306 325 279 231 239 211 260 275 293 300 306 310 308 308 304 303 302 300 299 295 297 292 284 270 251 247 251 247 250 248 255 257 267 255 232 218 213 213 228 233 225 218 231 228
258 255 330 153 210 84 343 283 322 143 263 277 290 296 303 310 313 310 308 306 304 301 298 295 292 290 295 291 278 267 246 243 243 250 249 245 254 262 263 252 228 222 226 229 232 218 211 213 239
215 307 310 325 166 237 230 288 296 265 265 281 284 294 304 313 317 312 308 307 306 302 298 295 290 287 295 277 269 258 244 232 236 240 252 249 250 258 258 256 241 216 225 228 235 222 219 221 230
297 306 296 304 276 278 290 276 276 278 272 266 279 289 309 318 319 313 312 311 307 304 298 294 287 279 298 284 270 255 257 231 229 230 242 254 245 250 256 246 240 234 233 234 235 236 236 231 221
288 280 286 297 8 311 276 284 282 281 267 251 261 290 310 317 315 313 313 313 312 306 302 294 283 274 289 285 275 234 209 249 234 232 235 242 242 230 234 251 246 233 233 234 223 236 236 220 219
275 283 295 317 189 323 296 288 286 276 252 247 268 297 315 317 316 317 316 315 312 311 308 301 284 273 275 277 269 254 218 197 197 228 224 233 242 236 230 231 238 233 231 232 225 229 227 218 231
279 277 303 298 319 278 306 272 200 250 194 208 240 315 319 314 314 316 316 315 315 313 309 310 295 281 278 274 275 255 238 248 235 232 235 224 234 243 239 236 225 229 232 231 228 229 225 216 225
290 37 306 307 327 307 19 296 231 172 212 214 244 328 322 315 314 314 315 315 315 315 317 315 306 288 275 271 270 255 231 219 204 203 204 221 244 244 246 242 239 229 218 238 233 233 225 210 208
260 325 301 314 271 320 150 254 222 171 238 227 268 326 324 316 315 317 316 316 317 319 324 321 317 299 282 267 263 252 227 231 226 238 236 241 253 252 251 250 246 237 223 228 236 232 232 226 224
297 301 301 166 311 263 162 245 275 166 355 264 313 325 321 315 315 316 318 320 321 327 334 331 318 304 295 267 254 246 237 233 226 235 242 254 261 263 258 251 244 239 231 231 234 232 231 230 235
328 297 313 278 234 306 166 254 292 106 108 308 313 315 314 312 316 319 323 325 326 328 333 336 329 316 299 266 241 241 232 227 230 238 246 254 255 262 255 250 250 241 234 232 240 238 236 239 237
12 304 32 299 313 308 196 245 357 106 164 290 288 307 304 311 314 318 322 324 324 325 328 333 333 329 323 286 217 226 221 218 219 227 230 237 251 252 241 241 242 232 241 232 237 229 232 225 231
86 241 50 273 117 275 235 243 134 166 229 328 322 312 307 309 311 319 325 327 328 328 332 336 338 344 342 338 233 217 213 212 208 208 220 235 243 235 232 232 230 225 226 234 242 227 227 224 233
280 140 214 148 310 302 304 296 275 226 327 317 321 311 308 308 315 326 330 333 333 337 343 343 348 354 358 346 270 233 208 204 199 199 201 211 221 220 213 211 204 206 208 212 224 210 202 190 189
156 217 195 294 232 298 311 312 95 179 318 305 307 307 304 312 324 333 339 338 344 349 355 357 1 5 11 14 11 236 198 189 192 193 186 187 182 177 169 165 170 177 181 179 175 169 172 152 140
294 277 228 237 158 231 281 275 125 184 298 292 300 302 307 318 329 339 339 345 350 357 1 5 13 20 25 32 50 96 137 151 162 163 161 154 151 144 142 139 137 138 131 125 131 131 125 122 110